{"data":{"norad_id":69567,"epoch":"2026-09-20T04:06:33.546240Z","epoch_age_seconds":50090,"freshness":"FRESH","line1":"1 69567U 26135X   26263.17122160  .00008066  00000+0  25184-3 0  9991","line2":"2 69567  97.2846 290.9205 0001346 106.3725 253.7666 15.33451754 14969","mean_motion":15.33451754,"eccentricity":0.0001346,"inclination_deg":97.2846,"raan_deg":290.9205,"arg_perigee_deg":106.3725,"mean_anomaly_deg":253.7666,"bstar":0.00025184,"rev_number":1496,"period_min":93.905791052361,"perigee_km":464.60192275304,"apogee_km":466.44423604642,"semimajor_km":6843.6600793997,"source":"CELESTRAK","updated_at":"2026-09-20T09:00:44.246092Z"}}